Total_Precipitation_Accumulation
1.09 1.10 1.21 1.38 1.46 1.48 1.59 1.55 1.44 1.35 1.32 1.27 1.22 1.24 1.24 1.21 1.31 1.50 1.65 1.83 1.94 1.99 1.97 2.01 2.01 2.09 2.11 1.98 2.03 2.09 2.26 2.44 2.18 1.75 1.82 1.97 1.92 1.72 1.57 1.47 1.38 1.34 1.29
1.05 1.13 1.19 1.30 1.37 1.37 1.40 1.45 1.49 1.40 1.33 1.33 1.35 1.32 1.20 1.17 1.27 1.41 1.57 1.75 1.92 2.02 2.11 2.18 2.01 2.06 2.17 2.09 2.07 2.09 2.18 2.42 2.36 2.23 2.20 2.25 2.18 1.95 1.74 1.52 1.23 1.12 1.18
1.14 1.15 1.11 1.18 1.16 1.18 1.23 1.27 1.35 1.40 1.42 1.44 1.45 1.40 1.36 1.42 1.52 1.59 1.64 1.77 1.91 2.00 2.08 2.06 2.01 2.12 2.04 2.08 2.13 2.11 2.10 2.12 2.23 2.23 2.15 2.24 2.18 1.95 1.74 1.49 1.27 1.28 1.19
0.99 1.01 1.03 1.03 1.06 1.15 1.22 1.24 1.27 1.27 1.36 1.39 1.39 1.46 1.51 1.57 1.62 1.62 1.61 1.64 1.72 1.80 1.79 1.70 1.65 1.71 1.78 1.91 1.91 1.91 1.98 2.04 2.12 2.09 2.09 2.17 2.18 2.16 1.97 1.69 1.50 1.40 1.30
1.04 1.01 1.01 1.03 1.05 1.08 1.12 1.12 1.14 1.20 1.23 1.39 1.43 1.52 1.60 1.59 1.50 1.54 1.56 1.48 1.65 1.62 1.49 1.45 1.46 1.55 1.56 1.62 1.55 1.61 1.75 1.84 1.92 2.03 2.11 2.27 2.29 2.37 2.20 1.91 1.73 1.59 1.43
1.00 1.06 1.09 1.09 1.03 1.06 1.08 1.06 1.08 1.17 1.29 1.42 1.46 1.57 1.62 1.48 1.52 1.56 1.58 1.57 1.62 1.57 1.51 1.46 1.35 1.34 1.31 1.34 1.38 1.43 1.55 1.68 1.85 2.01 2.08 2.17 2.23 2.20 2.15 2.01 1.88 1.68 1.45
1.05 1.03 1.12 1.20 1.12 1.18 1.21 1.19 1.21 1.27 1.37 1.44 1.56 1.60 1.60 1.65 1.57 1.47 1.50 1.47 1.53 1.58 1.60 1.60 1.35 1.18 1.25 1.23 1.36 1.33 1.29 1.33 1.43 1.59 1.72 1.85 2.04 2.14 2.22 2.14 2.12 1.99 1.72
1.04 1.08 1.26 1.40 1.31 1.31 1.33 1.34 1.40 1.46 1.50 1.60 1.65 1.58 1.59 1.64 1.56 1.32 1.26 1.19 1.29 1.41 1.50 1.55 1.54 1.44 1.40 1.40 1.45 1.41 1.31 1.27 1.36 1.39 1.47 1.68 1.99 2.24 2.27 2.25 2.27 2.18 1.91
1.11 1.22 1.42 1.57 1.62 1.59 1.55 1.64 1.68 1.71 1.75 1.83 1.89 1.87 1.78 1.75 1.55 1.24 1.13 1.10 1.24 1.32 1.37 1.38 1.36 1.28 1.26 1.18 1.20 1.25 1.25 1.24 1.24 1.27 1.30 1.42 1.65 2.00 2.18 2.23 2.31 2.22 2.01
1.25 1.28 1.40 1.56 1.64 1.66 1.67 1.82 1.97 2.00 2.00 2.04 1.94 1.82 1.73 1.71 1.62 1.30 1.14 1.11 1.26 1.34 1.43 1.42 1.38 1.30 1.24 1.09 1.07 1.13 1.13 1.14 1.18 1.19 1.16 1.14 1.25 1.55 1.85 1.87 1.93 2.05 1.84
1.21 1.23 1.32 1.53 1.78 1.81 1.87 1.95 2.06 2.13 2.18 2.20 2.10 1.99 1.87 1.81 1.77 1.43 1.27 1.22 1.31 1.37 1.32 1.34 1.32 1.28 1.07 0.96 0.96 1.01 1.02 1.02 1.12 1.18 1.20 1.21 1.27 1.36 1.50 1.58 1.66 1.74 1.71
1.24 1.27 1.37 1.61 1.71 1.80 1.96 2.01 2.16 2.28 2.29 2.26 2.25 2.12 2.04 1.95 1.71 1.42 1.23 1.22 1.32 1.43 1.43 1.40 1.36 1.22 0.98 0.85 0.76 0.73 0.77 0.77 0.84 0.98 1.04 1.08 1.12 1.18 1.29 1.45 1.62 1.68 1.67
1.21 1.24 1.33 1.46 1.55 1.68 1.76 1.74 1.83 1.97 1.99 2.02 2.05 2.01 2.02 2.11 1.97 1.55 1.25 1.18 1.26 1.37 1.52 1.59 1.39 1.21 1.06 0.92 0.85 0.77 0.69 0.66 0.75 0.84 0.91 0.92 0.96 1.05 1.21 1.43 1.62 1.81 1.76
1.16 1.13 1.22 1.38 1.45 1.53 1.64 1.65 1.74 1.81 1.87 1.94 1.96 1.92 1.94 2.08 2.09 1.77 1.44 1.25 1.17 1.16 1.21 1.24 1.17 1.10 1.00 0.88 0.80 0.71 0.63 0.66 0.74 0.77 0.83 0.92 1.02 1.19 1.27 1.28 1.38 1.59 1.76
1.18 1.13 1.21 1.32 1.41 1.47 1.58 1.66 1.68 1.71 1.69 1.72 1.75 1.72 1.73 1.85 1.84 1.61 1.40 1.26 1.16 1.15 1.17 1.22 1.21 1.19 1.09 0.99 0.92 0.86 0.85 0.86 0.83 0.84 0.90 0.99 1.04 1.12 1.21 1.27 1.33 1.38 1.42
1.25 1.16 1.14 1.15 1.24 1.31 1.39 1.38 1.31 1.28 1.26 1.24 1.28 1.21 1.20 1.36 1.37 1.14 1.01 1.04 1.05 1.02 1.05 1.13 1.20 1.24 1.19 1.12 1.06 1.01 1.01 0.98 0.94 0.95 0.99 1.04 1.09 1.11 1.17 1.30 1.42 1.42 1.32
1.43 1.27 1.14 1.09 1.10 1.15 1.25 1.33 1.35 1.24 1.14 1.07 1.04 0.94 0.87 1.08 1.16 1.02 0.90 0.86 0.84 0.84 0.91 0.99 1.04 1.12 1.16 1.07 0.98 0.92 0.91 0.93 0.98 1.02 1.02 1.05 1.10 1.15 1.20 1.29 1.40 1.47 1.39
1.37 1.27 1.12 1.05 1.03 1.02 1.07 1.17 1.24 1.30 1.27 1.10 0.95 0.84 0.76 0.88 1.00 0.95 0.84 0.75 0.74 0.75 0.80 0.89 0.97 1.02 1.08 1.04 0.96 0.95 0.98 1.03 1.03 1.03 1.04 1.06 1.11 1.16 1.21 1.26 1.32 1.38 1.38
1.23 1.14 1.04 1.01 1.02 0.95 0.89 0.96 1.03 1.10 1.20 1.16 0.98 0.89 0.81 0.86 0.93 0.89 0.78 0.68 0.71 0.72 0.73 0.79 0.86 0.93 0.96 0.95 0.95 0.97 0.99 1.02 0.97 0.98 1.03 1.09 1.07 1.12 1.12 1.17 1.26 1.34 1.37
1.00 0.91 0.88 0.91 0.90 0.87 0.86 0.90 0.99 1.08 1.15 1.13 1.01 0.88 0.77 0.79 0.87 0.86 0.75 0.70 0.69 0.67 0.65 0.72 0.79 0.84 0.88 0.91 0.98 1.02 0.99 1.03 1.05 1.00 1.03 1.10 1.05 1.05 1.05 1.07 1.18 1.23 1.23
0.84 0.73 0.64 0.67 0.76 0.80 0.85 0.92 1.03 1.11 1.13 1.04 0.89 0.74 0.65 0.61 0.72 0.73 0.76 0.77 0.74 0.73 0.73 0.71 0.74 0.79 0.82 0.89 0.97 1.02 1.03 1.06 1.08 1.03 1.02 1.10 1.09 1.10 1.13 1.10 1.12 1.22 1.23
0.83 0.69 0.57 0.57 0.63 0.67 0.78 0.90 0.99 0.99 0.94 0.88 0.80 0.69 0.64 0.61 0.66 0.69 0.75 0.74 0.71 0.70 0.66 0.67 0.70 0.76 0.81 0.85 0.91 0.97 1.00 1.00 1.04 1.07 1.06 1.10 1.12 1.10 1.13 1.12 1.10 1.20 1.29
0.76 0.58 0.46 0.44 0.48 0.53 0.65 0.82 0.88 0.82 0.75 0.72 0.71 0.69 0.68 0.69 0.67 0.69 0.72 0.71 0.68 0.66 0.62 0.66 0.70 0.74 0.80 0.81 0.80 0.86 0.91 0.92 0.91 0.97 1.06 1.08 1.11 1.13 1.14 1.17 1.17 1.20 1.29
0.62 0.48 0.37 0.33 0.37 0.45 0.60 0.77 0.78 0.70 0.66 0.68 0.68 0.70 0.69 0.68 0.67 0.68 0.70 0.71 0.70 0.69 0.66 0.67 0.67 0.65 0.68 0.74 0.73 0.70 0.70 0.69 0.69 0.78 0.90 1.00 1.05 1.14 1.14 1.15 1.18 1.17 1.25
0.56 0.47 0.36 0.31 0.34 0.48 0.66 0.77 0.70 0.63 0.62 0.62 0.60 0.64 0.68 0.70 0.70 0.70 0.70 0.72 0.72 0.74 0.72 0.68 0.66 0.64 0.59 0.59 0.61 0.59 0.57 0.49 0.49 0.59 0.71 0.84 0.90 1.00 1.05 1.06 1.14 1.18 1.20
0.54 0.50 0.43 0.38 0.41 0.54 0.66 0.71 0.65 0.62 0.64 0.61 0.59 0.62 0.67 0.70 0.70 0.67 0.68 0.69 0.68 0.66 0.60 0.56 0.55 0.56 0.55 0.52 0.48 0.44 0.39 0.37 0.39 0.47 0.56 0.69 0.80 0.88 0.95 1.00 1.05 1.14 1.14